Regional Weather Roundup
Issued by NWS

Home | Current Version | Previous Version | Text Only | Print | Product List | Glossary Off
Versions: 1 2 3 4 5 6 7 8 9 10 11 12 13 14 15 16 17 18 19 20 21 22 23 24 25 26 27 28 29 30 31 32 33 34 35 36 37 38 39 40 41 42 43 44 45 46 47 48 49 50

000
ASUS43 KDMX 021704
RWRIA

WEATHER ROUNDUP FOR IOWA
NATIONAL WEATHER SERVICE DES MOINES IA
  ISSUED BY NWS QUAD CITIES IA IL
1100 AM CST MON MAR 02 2015

NOTE: "FAIR" INDICATES FEW OR NO CLOUDS BELOW 12,000 FEET WITH NO
SIGNIFICANT WEATHER AND/OR OBSTRUCTIONS TO VISIBILITY.

* - THESE STATIONS ARE NOT NWS STATIONS...THUS NOT UNDER NWS
QUALITY CONTROL.  THEY ALSO DO NOT REPORT WEATHER SUCH
AS PRECIPITATION OR FOG.

IAZ001>003-012>014-020>022-031>034-043>046-021800-
   NORTHWEST IOWA

CITY           SKY/WX    TMP DP  RH WIND       PRES   REMARKS
CARROLL *      CLOUDY    27  18  69 SE10      30.46F WCI  17
CHEROKEE *     CLOUDY    24  17  74 SE12      30.44F WCI  13
DENNISON *     CLOUDY    27  18  69 SE7G14    30.41F WCI  19
LE MARS *      CLOUDY    27  16  63 SE14      30.41F WCI  15
ORANGE CITY *  SUNNY     25  16  68 S9        30.40F WCI  15
SHELDON *      PTSUNNY   25  14  63 SE15      30.40F WCI  12
SIOUX CITY     CLOUDY    29  17  61 SE14      30.41F WCI  18
SPENCER        SUNNY     23  11  60 S12       30.44F WCI  12
STORM LAKE *   PTSUNNY   23  16  74 S12       30.43F WCI  12
$$

IAZ055>058-069>071-079>083-090>094-021800-
   SOUTHWEST IOWA

CITY           SKY/WX    TMP DP  RH WIND       PRES   REMARKS
ATLANTIC *     CLOUDY    30  19  64 VRB7      30.46S WCI  23
AUDUBON *      PTSUNNY   28  18  64 SE7       30.46S WCI  21
CLARINDA *     CLOUDY    32  18  55 SE8       30.48F WCI  25
COUNCIL BLFS * CLOUDY    28  19  69 SE13      30.41F WCI  18
CRESTON *      CLOUDY    28  18  64 E10       30.46F WCI  19
HARLAN *       CLOUDY    28  23  80 SE8       30.47F WCI  20
LAMONI         PTSUNNY   29  18  63 E5        30.47F WCI  24
RED OAK *      CLOUDY    30  19  64 SE8       30.45F WCI  23
SHENANDOAH *   CLOUDY    34  19  55 SE13      30.46F WCI  25
$$

IAZ047>049-059>061-072>074-084-021800-
   CENTRAL IOWA

CITY           SKY/WX    TMP DP  RH WIND       PRES   REMARKS
AMES           PTSUNNY   24  14  65 E5        30.50F WCI  18
ANKENY *       PTSUNNY   27  14  59 SE6       30.50F WCI  20
BOONE *        CLOUDY    25  16  68 S7        30.46F WCI  17
CHARITON *     MOSUNNY   28  14  54 E7        30.48F WCI  21
DES MOINES     CLOUDY    28  12  51 SE7       30.49F WCI  21
GRINNELL *     SUNNY     23  14  66 CALM      30.50F
KNOXVILLE *    MOSUNNY   28  12  50 SE5       30.48F WCI  23
MARSHALLTOWN   SUNNY     21  14  74 CALM      30.49F
NEWTON *       MOSUNNY   25  12  58 E6        30.50F WCI  18
PELLA *        SUNNY     29  17  59 E6        30.51F WCI  23
PERRY *          N/A     28  17  66 SE7       30.48F WCI  20
$$

IAZ004>006-015-016-023>025-035-036-021800-
   NORTH CENTRAL IOWA

CITY           SKY/WX    TMP DP  RH WIND       PRES   REMARKS
ALGONA *       SUNNY     21  14  73 S9        30.47F WCI  11
CLARION *      SUNNY     19  18  93 S7        30.48F WCI  10
ESTHERVILLE    MOSUNNY   20  13  74 S10       30.44F WCI   9
FORT DODGE *   SUNNY     25  12  58 S5        30.48F WCI  19
MASON CITY     SUNNY     17  10  74 SE6       30.49F WCI   9
FOREST CITY *  FAIR      18  12  79 SE3       30.47F
WEBSTER CITY * SUNNY     23  19  86 SE6       30.47F WCI  16
IOWA FALLS *   FAIR      18  13  82 CALM      30.50F
$$

IAZ007>011-017>019-026>030-037>042-050>054-066-021800-
   NORTHEAST IOWA

CITY           SKY/WX    TMP DP  RH WIND       PRES   REMARKS
CEDAR RAPIDS   MOSUNNY   18  12  77 NW6       30.50F WCI  10
CHARLES CITY * SUNNY     18  12  79 CALM      30.50S
CLINTON *      MOSUNNY   16  12  86 N3        30.55F
DECORAH *      SUNNY     18   9  68 CALM      30.48S
DUBUQUE        SUNNY     23  12  62 CALM      30.49F
MONTICELLO *   SUNNY     19  10  68 MISG      30.52F
OELWEIN *      SUNNY     14  12  92 CALM      30.51S
WATERLOO       MOSUNNY   20  11  68 CALM      30.51F
$$

IAZ064-065-067-068-078-021800-
   EAST CENTRAL IOWA

CITY           SKY/WX    TMP DP  RH WIND       PRES   REMARKS
DAVENPORT      MOSUNNY   20  11  68 NW3       30.53S
IOWA CITY        N/A     25  14  63 CALM      30.53F
MT. PLEASANT * MOSUNNY   22  13  66 N3        30.54S
MUSCATINE *    SUNNY     25  14  63 N5        30.55S WCI  19
QUAD CITIES    MOSUNNY   26  14  60 CALM      30.53S
$$

IAZ062-063-075>077-085>089-095>099-021800-
   SOUTHEAST IOWA

CITY           SKY/WX    TMP DP  RH WIND       PRES   REMARKS
BURLINGTON     MOSUNNY   26  14  60 SE3       30.53S
FAIRFIELD *    MOSUNNY   25  12  58 CALM      30.52F
FORT MADISON * MOSUNNY   27  16  63 CALM      30.53S
KEOKUK *       PTSUNNY   27  16  63 E3        30.52F
OSKALOOSA *    FAIR      28  14  56 E3        30.51F
CENTERVILLE *  FAIR      28  18  64 E6        30.50F WCI  22
OTTUMWA        MOSUNNY   26  15  63 E3        30.51F
WASHINGTON *   SUNNY     25  18  74 N5        30.52F WCI  19
$$

ABBREVIATIONS USED IN REMARKS
   TC - TEMPERATURES IN CELSIUS
  WCI - WIND CHILL INDEX
   HX - HEAT INDEX
  VSB - VISIBILITY
$$


USA.gov is the U.S. government's official web portal to all federal, state and local government web resources and services.